Location: G�ndlingen
(48.0142°N, 7.6396°E)
Time: 02:47:31
(UTC+00:00)

Cosmos 1315 Rocket - Pass Details

Date: 05 July 2020
Orbit: 530 x 568 km, 81.2° (Epoch: 04 August)

Event Time Altitude Azimuth Distance (km) Brightness Sun altitude
Rises 20:44:30 0° 354° (N) 2,752 7.5 -9.7°
Reaches altitude 10° 20:46:45 10° 1° (N) 1,858 6.3 -10.0°
Maximum altitude 20:50:41 43° 74° (ENE) 796 3.5 -10.4°
Enters shadow 20:53:46 15° 142° (SE) 1,544 4.4 -10.7°
